SCP
0 0 0 0 0 0 0 0 0 0 0 0 0 0 0 0 0 0 0 0 0 0 0 0 0 0 0 0 0 0 0 0 0 0 0 0 0 0 0 0 0 0 0
0 0 0 0 0 0 0 0 0 0 0 0 0 0 0 0 0 0 0 0 0 0 0 0 0 0 0 0 0 0 0 0 0 0 0 0 0 0 0 0 0 0 0
0 0 0 0 0 0 0 0 0 0 0 0 0 0 0 0 0 0 0 0 0 0 0 0 0 0 0 0 0 0 0 0 0 0 0 0 0 0 0 0 0 0 0
0 0 0 0 0 0 0 0 0 0 0 0 0 0 0 0 0 0 0 0 0 0 0 0 0 0 0 0 0 0 0 0 0 0 0 0 0 0 0 0 0 0 0
0 0 0 0 0 0 0 0 0 0 0 0 0 0 0 0 0 0 0 0 0 0 0 0 0 0 0 0 0 0 0 0 0 0 0 0 0 0 0 0 0 0 0
0 0 0 0 0 0 0 0 0 0 0 0 0 0 0 0 0 0 0 0 0 0 0 0 0 0 0 0 0 0 0 0 0 0 0 0 0 0 0 0 0 0 0
0 0 0 0 0 0 0 0 0 0 0 0 0 0 0 0 0 0 0 0 0 0 0 0 0 0 0 0 0 0 0 0 0 0 0 0 0 0 0 0 0 0 0
0 0 0 0 0 0 0 0 0 0 0 0 0 0 0 0 0 0 0 0 0 0 0 0 0 0 0 0 0 0 0 0 0 0 0 0 0 0 0 0 0 0 0
0 0 0 0 0 0 0 0 0 0 0 0 0 0 0 0 0 0 0 0 0 0 0 0 0 0 0 0 0 0 0 0 0 0 0 0 0 0 0 0 0 0 0
0 0 0 0 0 0 0 0 0 0 0 0 0 0 0 0 0 0 0 0 0 0 0 0 0 0 0 0 0 0 0 0 0 0 0 0 0 0 0 0 0 0 0
0 0 0 0 0 0 0 0 0 0 0 0 0 0 0 0 0 0 0 0 0 0 0 0 0 0 0 0 0 0 0 0 0 0 0 0 0 0 0 0 0 0 0
0 0 0 0 0 0 0 0 0 0 0 0 0 0 0 0 0 0 0 0 0 0 0 0 0 0 0 0 0 0 0 0 0 0 0 0 0 0 0 0 0 0 0
0 0 0 0 0 0 0 0 0 0 0 0 0 0 0 0 0 0 0 0 0 0 0 0 0 0 0 0 0 0 0 0 0 0 0 0 0 0 0 0 0 0 0
0 0 0 0 0 0 0 0 0 0 0 0 0 0 0 0 0 0 0 0 0 0 0 0 0 0 0 0 0 0 0 0 0 0 0 0 0 0 0 0 0 0 0
0 0 0 0 0 0 0 0 0 0 0 0 0 0 0 0 0 0 0 0 0 0 0 0 0 0 0 0 0 0 0 0 0 0 0 0 0 0 0 0 0 0 0
0 0 0 0 0 0 0 0 0 0 0 0 0 0 0 0 0 0 0 0 0 0 0 0 0 0 0 0 0 0 0 0 0 0 0 0 0 0 0 0 0 0 0
0 0 0 0 0 0 0 0 0 0 0 0 0 0 0 0 0 0 0 0 0 0 0 0 0 0 0 0 0 0 0 0 0 0 0 0 0 0 0 0 0 0 0
0 0 0 0 0 0 0 0 0 0 0 0 0 0 0 0 0 0 0 0 0 0 0 0 0 0 0 0 0 0 0 0 0 0 0 0 0 0 0 0 0 0 0
0 0 0 0 0 0 0 0 0 0 0 0 0 0 0 0 0 0 0 0 0 0 0 0 0 0 0 0 0 0 0 0 0 0 0 0 0 0 0 0 0 0 0
0 0 0 0 0 0 0 0 0 0 0 0 0 0 0 0 0 0 0 0 0 0 0 0 0 0 0 0 0 0 0 0 0 0 0 0 0 0 0 0 0 0 0
0 0 0 0 0 0 0 0 0 0 0 0 0 0 0 0 0 0 0 0 0 0 0 0 0 0 0 0 0 0 0 0 0 0 0 0 0 0 0 0 0 0 0
0 0 0 0 0 0 0 0 0 0 0 0 0 0 0 0 0 0 0 0 0 0 0 0 0 0 0 0 0 0 0 0 0 0 0 0 0 0 0 0 0 0 0
0 0 0 0 0 0 0 0 0 0 0 0 0 0 0 0 0 0 0 0 0 0 0 0 0 0 0 0 0 0 0 0 0 0 0 0 0 0 0 0 0 0 0
0 0 0 0 0 0 0 0 0 0 0 0 0 0 0 0 0 0 0 0 0 0 0 0 0 0 0 0 0 0 0 0 0 0 0 0 0 0 0 0 0 0 0
0 0 0 0 0 0 0 0 0 0 0 0 0 0 0 0 0 0 0 0 0 0 0 0 0 0 0 0 0 0 0 0 0 0 0 0 0 0 0 0 0 0 0
0 0 0 0 0 0 0 0 0 0 0 0 0 0 0 0 0 0 0 0 0 0 0 0 0 0 0 0 0 0 0 0 0 0 0 0 0 0 0 0 0 0 0
Wind_Speed
14 17 19 20 19 17 16 15 14 14 13 13 13 13 13 14 14 14 13 14 13 13 13 14 14 15 15 16 16 16 16 16 16 15 15 15 15 15 15 14 12 11 15
18 19 21 21 19 18 17 16 15 14 14 13 13 13 13 13 13 13 13 14 13 13 13 14 14 14 14 15 15 15 15 15 15 14 12 13 14 14 14 14 14 11 14
19 19 21 20 20 19 18 17 16 15 14 13 13 13 13 13 13 13 13 13 13 13 13 13 13 14 14 14 14 14 14 14 13 11 9 9 11 13 13 13 13 13 13
20 18 19 21 20 19 18 17 16 15 14 13 13 13 13 13 13 13 13 13 13 13 13 13 13 13 13 14 13 13 13 12 11 8 8 9 9 12 12 12 12 11 12
19 17 19 20 20 20 19 18 17 16 15 14 14 13 13 13 13 13 13 13 13 12 12 12 12 12 13 13 13 12 12 11 8 8 8 8 8 10 11 11 11 10 10
19 17 19 20 20 20 19 18 17 16 15 15 14 14 13 13 13 13 13 12 12 12 12 11 11 12 12 12 12 11 11 8 5 7 7 8 8 9 9 9 9 10 10
18 17 19 20 20 19 19 18 17 16 15 15 14 14 13 13 13 12 12 12 11 11 11 11 11 11 11 11 10 10 9 6 6 6 6 7 8 9 9 9 9 9 10
17 16 18 20 19 19 18 18 17 16 16 15 14 14 13 13 13 12 11 11 10 10 10 10 10 10 10 10 10 9 8 4 5 6 6 7 9 8 8 8 8 9 9
16 15 16 17 17 18 17 17 17 16 16 15 14 14 13 13 12 12 11 10 10 9 9 9 8 9 9 9 9 8 7 4 4 5 5 6 8 8 8 9 9 10 10
15 15 15 16 16 16 15 15 15 15 15 14 13 12 12 11 11 11 10 9 9 8 8 8 8 8 8 8 8 7 4 1 4 4 4 6 8 8 8 8 9 10 11
15 15 15 15 15 15 14 14 14 14 13 13 12 12 10 9 10 9 8 8 8 8 8 8 8 7 6 7 7 4 1 2 4 3 4 7 7 7 8 8 9 10 10
19 18 15 15 15 14 11 12 11 11 12 11 10 12 9 7 6 7 9 7 7 7 8 7 7 6 3 4 5 2 1 3 2 3 4 6 6 6 7 8 9 9 10
20 18 16 15 14 14 11 10 8 7 8 10 11 11 8 7 6 6 5 6 6 6 5 6 5 3 2 2 2 2 3 2 2 2 4 6 6 6 7 8 8 9 9
19 19 17 16 14 14 12 10 9 8 8 8 9 11 8 6 6 6 4 5 5 4 4 3 2 3 3 2 2 2 2 2 2 2 5 6 6 6 7 7 8 8 9
20 20 19 17 16 14 12 10 9 9 9 9 9 10 10 7 7 6 5 5 5 4 4 3 3 3 2 2 2 1 2 2 2 2 3 6 6 6 7 7 7 8 9
20 20 19 19 18 16 13 11 10 9 9 9 9 10 11 8 7 7 6 5 5 4 4 3 3 2 2 1 1 1 1 1 2 2 2 5 7 7 7 7 7 8 8
20 20 20 19 18 18 16 14 10 9 10 9 9 11 11 10 9 8 6 6 5 5 5 4 3 2 1 1 1 1 1 1 1 2 2 2 4 7 7 7 7 8 8
19 20 20 16 18 18 16 14 10 10 10 9 9 10 12 12 11 8 7 6 6 5 5 4 3 3 2 1 1 1 1 1 1 2 2 2 2 2 5 7 7 8 8
19 20 20 20 20 18 17 13 11 10 10 9 9 9 11 12 12 9 7 7 7 6 5 4 4 3 2 2 1 1 1 1 1 2 2 2 2 1 2 4 5 7 8
18 19 19 20 19 17 14 11 9 10 10 10 10 11 13 12 13 11 8 9 8 6 6 6 5 3 2 2 2 1 1 1 2 2 2 2 2 2 1 1 1 3 5
18 19 20 20 19 16 13 12 12 12 11 11 11 13 14 13 14 12 8 9 9 8 8 7 5 5 3 3 2 2 2 3 3 2 2 3 3 2 1 1 1 2 1
20 21 21 21 21 20 15 14 12 12 10 10 9 12 14 14 14 11 12 10 10 8 9 8 7 5 3 4 3 2 3 4 4 3 3 3 3 3 2 2 2 2 3
20 22 19 22 22 22 19 13 10 9 8 9 11 12 15 16 15 14 14 12 11 10 9 9 9 8 5 4 4 3 3 2 2 4 5 4 4 4 3 3 3 3 3
20 20 21 22 22 22 20 17 18 14 14 16 13 12 14 16 16 15 14 14 12 10 10 10 9 7 6 5 4 3 3 2 2 2 4 5 5 5 5 3 4 3 3
18 18 19 21 22 22 22 21 20 17 15 12 12 15 15 14 16 15 15 14 12 10 11 11 10 9 7 6 5 4 4 3 4 4 3 3 4 4 4 4 4 3 3
15 16 17 20 21 22 22 22 22 21 18 16 16 15 13 11 12 16 15 14 13 11 12 11 10 11 8 8 6 5 4 4 4 4 5 4 4 3 4 4 4 4 3
Wind_Direction
162 161 162 159 154 152 148 144 140 136 130 125 120 114 110 107 103 99 96 94 92 90 88 85 82 80 78 75 72 71 69 66 63 60 60 61 61 59 54 47 44 53 47
155 158 159 157 154 152 150 145 140 137 132 128 122 118 114 110 107 103 100 96 94 91 89 86 84 81 79 77 74 73 71 68 64 61 63 67 63 60 58 52 47 48 47
152 156 158 157 154 152 149 144 140 138 134 131 126 122 119 115 110 107 103 100 96 93 91 88 84 82 81 80 76 74 73 69 64 60 63 65 65 59 58 55 52 49 46
153 156 157 155 155 153 150 146 142 139 136 134 130 128 125 120 115 110 106 102 98 96 93 90 87 85 84 81 78 75 72 67 60 52 58 55 58 55 52 49 48 47 44
154 156 153 156 156 154 151 147 144 141 139 137 134 131 128 124 118 113 109 104 101 99 97 93 90 88 86 83 80 76 72 66 62 61 60 54 53 49 46 41 39 40 39
156 156 153 159 157 154 152 150 148 145 144 141 137 134 131 126 121 117 113 109 106 102 99 96 93 91 90 86 81 78 72 62 70 63 57 47 43 40 39 34 30 33 31
157 157 156 160 158 156 155 153 151 149 148 144 141 137 134 128 124 121 118 115 112 108 105 101 97 95 92 87 82 77 71 53 59 64 54 47 36 31 35 29 25 26 26
157 158 157 162 160 159 158 156 155 153 150 147 145 141 137 133 131 128 124 121 118 114 110 105 101 98 94 89 84 77 68 37 73 65 54 46 28 27 35 30 27 27 29
161 162 162 165 163 161 161 160 159 157 153 151 148 144 140 139 138 134 130 127 122 118 114 109 104 100 95 91 87 79 71 18 47 57 48 40 18 25 35 35 34 33 33
167 169 168 169 167 166 164 162 160 158 156 154 148 141 139 141 141 136 137 130 126 124 119 111 104 98 92 88 87 83 78 259 57 62 49 37 12 27 37 39 36 38 36
175 176 175 173 171 169 167 161 162 160 157 154 148 139 150 157 150 149 132 131 130 127 120 111 104 100 103 98 89 92 223 52 63 47 47 24 12 29 42 41 40 40 36
181 181 180 177 173 170 166 166 171 168 165 171 163 161 167 159 152 146 124 130 128 124 121 110 110 126 155 114 116 183 70 58 57 60 53 19 14 29 42 44 40 37 33
181 181 182 179 176 173 170 171 171 171 171 176 171 170 166 159 156 161 155 151 150 154 144 134 156 133 104 80 73 68 48 43 47 63 59 25 17 30 44 44 38 36 35
183 185 184 181 180 180 176 175 175 174 176 175 175 174 171 168 172 170 173 166 165 164 154 164 151 129 117 106 85 70 65 47 47 52 62 35 27 34 44 42 39 37 35
187 186 187 185 184 183 181 179 182 180 178 177 176 181 180 176 179 176 177 173 175 167 171 173 169 146 136 110 83 63 65 59 58 68 87 58 42 44 45 41 37 34 31
191 189 187 189 188 185 186 185 185 183 181 182 181 185 186 184 183 183 180 181 179 178 176 180 169 163 146 134 104 81 68 73 77 94 91 93 66 52 45 39 34 29 26
192 190 189 189 190 189 190 190 188 186 184 186 184 188 190 190 187 187 186 184 182 179 179 181 168 173 148 158 148 103 87 68 100 113 108 98 97 73 54 42 34 29 22
193 191 190 188 192 192 192 191 190 189 188 190 188 189 192 194 193 191 190 189 182 180 185 185 186 183 179 188 161 131 140 130 136 114 130 125 103 95 79 52 36 28 19
196 192 190 191 193 193 193 191 191 190 192 193 192 192 194 196 196 196 195 189 184 188 190 187 195 198 185 175 151 141 155 161 150 169 152 136 118 106 84 76 52 32 16
199 194 193 192 194 192 191 190 190 194 196 197 196 196 195 196 197 198 196 193 187 190 193 193 186 185 181 164 153 164 170 181 191 184 172 163 155 148 109 41 28 52 24
199 197 195 194 193 189 189 190 191 195 197 198 199 199 198 198 197 199 196 194 192 197 197 194 183 179 177 174 190 189 179 188 196 189 197 196 178 180 209 295 336 334 358
199 198 197 197 193 192 194 194 197 196 199 200 197 202 202 201 200 199 200 196 195 199 198 192 188 190 173 194 220 224 208 188 193 201 204 213 213 206 227 256 294 311 319
201 199 198 197 196 195 194 191 188 189 191 195 199 201 203 202 201 200 203 202 198 198 197 195 193 195 188 188 222 240 247 241 170 183 204 215 220 230 235 244 264 281 300
203 200 200 198 197 195 192 192 189 192 196 199 198 199 200 202 203 202 202 204 200 201 201 197 197 200 194 187 191 232 265 300 252 215 192 208 224 239 244 244 251 255 266
202 199 199 199 199 196 194 195 196 201 204 199 196 199 199 200 203 202 202 202 201 202 203 196 193 198 201 199 186 182 200 221 245 254 246 216 221 229 241 253 252 247 247
200 198 198 199 199 197 196 198 200 203 202 197 196 195 196 196 199 202 202 202 201 201 201 197 193 198 202 201 195 189 191 199 209 222 248 253 253 240 244 248 247 238 245